Location: Irma
(52.9170°N, 111.2330°W)
Time: 23:29:04
(UTC-06:00)

Amateur Radio Satellites - All Passes

Search period start: 29 July 2016 22:59
Search period end: 30 July 2016 22:59
Location: Irma, 52.9170°N, 111.2330°W

Satellite Date Start Highest point End Downlink Frequencies (MHz)
Time Altitude Azimuth
UWE-3 29 Jul 23:03:11 23:05:39 14° 275° (W) 23:08:08 435.000/436.395/437.385
PCSat 29 Jul 23:04:36 23:08:46 22° 343° (NNW) 23:12:56 145.827
UNISAT 6 29 Jul 23:05:37 23:09:37 28° 93° (E) 23:13:32 437.425
BEESAT 2 29 Jul 23:06:35 23:09:02 15° 354° (N) 23:11:30 435.950
SPROUT 29 Jul 23:10:47 23:13:25 16° 56° (NE) 23:16:03 437.525
ISS 29 Jul 23:12:23 23:15:36 55° 166° (SSE) 23:18:48 145.825
GONETS M04 29 Jul 23:12:46 23:13:11 10° 24° (NNE) 23:13:36
50 SAT 29 Jul 23:22:53 23:26:07 30° 66° (ENE) 23:29:22 437.505
CUBEBUG 1 29 Jul 23:28:47 23:32:53 43° 67° (ENE) 23:37:01 437.445
ESTCUBE 1 29 Jul 23:31:32 23:35:59 64° 71° (ENE) 23:40:26 437.505/2401.250
VELOX 1 29 Jul 23:35:31 23:39:41 45° 67° (ENE) 23:43:55 145.980
NANOSAT C BR1 29 Jul 23:39:35 23:40:04 10° 84° (E) 23:40:34 145.865
DUCHIFAT 1 29 Jul 23:42:21 23:42:50 10° 84° (E) 23:43:19 145.980
HUMSAT D 29 Jul 23:43:22 23:46:55 24° 268° (W) 23:50:28 437.325/437.525
ANTELSAT 29 Jul 23:43:40 23:48:17 58° 101° (E) 23:52:46 437.575/2403.000
AIST 2 29 Jul 23:52:47 23:56:14 25° 335° (NNW) 23:59:43 435.215
TISAT 1 29 Jul 23:55:53 23:57:48 13° 53° (NE) 23:59:45 437.305
QB50P1 30 Jul 00:01:46 00:04:43 18° 89° (E) 00:07:39 145.935-145.965
POPSAT HIP 1 30 Jul 00:08:21 00:11:33 20° 91° (E) 00:14:45 437.405
DX 1 30 Jul 00:09:22 00:13:40 70° 72° (ENE) 00:18:02 434.975-435.025
UKube-1 30 Jul 00:17:13 00:21:29 68° 71° (ENE) 00:25:48 .
PRISM 30 Jul 00:17:58 00:19:26 12° 308° (NW) 00:20:55 437.425
O/OREOS (USA 219) 30 Jul 00:20:22 00:21:01 10° 336° (NNW) 00:21:40 437.305
AISAT 30 Jul 00:20:31 00:24:54 71° 257° (WSW) 00:29:19 437.250
AIST 1 30 Jul 00:21:05 00:25:21 53° 74° (ENE) 00:29:38
TIGRISAT 30 Jul 00:24:30 00:29:09 68° 289° (WNW) 00:33:40 435.000
Cosmos 2491 30 Jul 00:28:49 00:36:14 30° 304° (WNW) 00:43:42 435.465 / 435.565
QB50P2 30 Jul 00:29:39 00:33:34 32° 96° (E) 00:37:25 145.880/145.840
POLYITAN 1 30 Jul 00:32:16 00:36:12 33° 96° (E) 00:40:06 437.675
BEESAT 3 30 Jul 00:33:06 00:36:08 20° 21° (NNE) 00:39:09 437.485
Cosmos 2504 30 Jul 00:40:38 00:46:14 21° 287° (WNW) 00:51:35 435.465 / 435.565
UNISAT 6 30 Jul 00:42:04 00:46:33 46° 293° (WNW) 00:50:54 437.425
SPROUT 30 Jul 00:44:30 00:48:47 85° 253° (WSW) 00:53:09 437.525
BEESAT 2 30 Jul 00:45:21 00:48:16 19° 18° (NNE) 00:51:11 435.950
ISS 30 Jul 00:48:40 00:51:55 69° 186° (S) 00:55:09 145.825
PCSat 30 Jul 00:50:15 00:54:07 19° 9° (N) 00:57:57 145.827
50 SAT 30 Jul 00:56:36 00:59:46 27° 264° (W) 01:02:57 437.505
CUBEBUG 1 30 Jul 01:05:41 01:09:21 26° 266° (W) 01:13:03 437.445
GONETS M04 30 Jul 01:06:38 01:14:05 29° 55° (NE) 01:21:31
ESTCUBE 1 30 Jul 01:10:01 01:13:13 19° 270° (W) 01:16:27 437.505/2401.250
NANOSAT C BR1 30 Jul 01:12:18 01:16:36 73° 103° (ESE) 01:20:52 145.865
VELOX 1 30 Jul 01:12:39 01:16:21 26° 266° (W) 01:20:05 145.980
DUCHIFAT 1 30 Jul 01:15:02 01:19:20 73° 103° (ESE) 01:23:36 145.980
BUGSAT 1 30 Jul 01:16:44 01:20:45 38° 97° (E) 01:24:44 437.445
JAS-2 30 Jul 01:16:57 01:21:43 33° 95° (E) 01:26:47 435.910
ANTELSAT 30 Jul 01:20:56 01:24:41 24° 301° (WNW) 01:28:20 437.575/2403.000
SWISSCUBE 30 Jul 01:22:14 01:25:57 23° 57° (ENE) 01:29:40 437.505
TISAT 1 30 Jul 01:28:33 01:32:45 75° 74° (ENE) 01:37:01 437.305
Oscar 19 30 Jul 01:33:04 01:35:50 14° 85° (E) 01:38:35 437.125/150
AIST 2 30 Jul 01:33:25 01:36:02 16° 359° (N) 01:38:39 435.215
Cosmos 2499 30 Jul 01:35:49 01:42:30 28° 56° (NE) 01:48:45 435.465 / 435.565
QB50P1 30 Jul 01:36:39 01:40:56 65° 288° (WNW) 01:45:10 145.935-145.965
BEESAT 30 Jul 01:42:42 01:46:50 30° 61° (ENE) 01:50:58 436.000
POPSAT HIP 1 30 Jul 01:43:28 01:47:42 57° 290° (WNW) 01:51:54 437.405
DX 1 30 Jul 01:47:32 01:50:21 17° 271° (W) 01:53:13 434.975-435.025
UKube-1 30 Jul 01:55:08 01:58:00 17° 270° (W) 02:00:53 .
AIST 1 30 Jul 01:59:23 02:02:37 21° 274° (W) 02:05:52
AISAT 30 Jul 02:01:45 02:02:14 10° 276° (W) 02:02:42 437.250
TIGRISAT 30 Jul 02:02:48 02:04:59 13° 309° (NW) 02:07:10 435.000
QB50P2 30 Jul 02:05:28 02:09:23 35° 295° (WNW) 02:13:17 145.880/145.840
ITUPSAT 1 30 Jul 02:07:24 02:11:57 44° 66° (ENE) 02:16:31 437.325
POLYITAN 1 30 Jul 02:08:07 02:12:02 34° 295° (WNW) 02:15:55 437.675
BEESAT 3 30 Jul 02:10:32 02:14:31 64° 43° (NE) 02:18:28 437.485
BEESAT 2 30 Jul 02:22:59 02:26:56 52° 40° (NE) 02:30:51 435.950
SPROUT 30 Jul 02:23:46 02:25:27 12° 275° (W) 02:27:09 437.525
ISS 30 Jul 02:25:08 02:28:06 32° 205° (SSW) 02:31:03 145.825
PCSat 30 Jul 02:34:04 02:39:04 35° 34° (NE) 02:44:03 145.827
Cosmos 2491 30 Jul 02:35:56 02:37:02 10° 335° (NNW) 02:38:07 435.465 / 435.565
KKS-1 30 Jul 02:36:44 02:39:17 15° 53° (NE) 02:41:52 437.445
NANOSAT C BR1 30 Jul 02:48:58 02:51:52 18° 303° (WNW) 02:54:46 145.865
DUCHIFAT 1 30 Jul 02:51:40 02:54:34 18° 303° (WNW) 02:57:27 145.980
BUGSAT 1 30 Jul 02:52:18 02:56:03 30° 297° (WNW) 02:59:46 437.445
SWISSCUBE 30 Jul 02:58:35 03:03:22 66° 257° (WSW) 03:08:09 437.505
JAS-2 30 Jul 03:02:02 03:07:03 47° 294° (WNW) 03:12:24 435.910
GONETS M04 30 Jul 03:03:19 03:12:11 89° 261° (W) 03:21:03
TISAT 1 30 Jul 03:06:28 03:08:56 15° 272° (W) 03:11:26 437.305
STARS 30 Jul 03:06:37 03:09:11 15° 54° (NE) 03:11:47 437.465
CUSAT 1 30 Jul 03:10:08 03:10:13 10° 92° (E) 03:10:18 437.405
Oscar 19 30 Jul 03:10:48 03:16:00 80° 105° (ESE) 03:21:12 437.125/150
AIST 2 30 Jul 03:12:30 03:15:53 23° 23° (NNE) 03:19:15 435.215
ITAMSAT 1 30 Jul 03:13:54 03:17:21 18° 88° (E) 03:20:46 435.822/435.867
QB50P1 30 Jul 03:14:24 03:15:55 12° 309° (NW) 03:17:25 145.935-145.965
Gurwin Techsat 1B 30 Jul 03:17:13 03:22:22 47° 99° (E) 03:27:29 435.225
BEESAT 30 Jul 03:19:49 03:24:27 48° 260° (W) 03:29:07 436.000
POPSAT HIP 1 30 Jul 03:21:45 03:22:36 11° 310° (NW) 03:23:28 437.405
Cosmos 2499 30 Jul 03:28:44 03:36:45 83° 261° (W) 03:44:06 435.465 / 435.565
MOZHAYETS 4 30 Jul 03:32:10 03:36:30 41° 66° (ENE) 03:40:51
AO-7 30 Jul 03:39:42 03:45:24 20° 85° (E) 03:51:03 29.400- 29.500
O/OREOS (USA 219) 30 Jul 03:42:44 03:44:32 12° 28° (NNE) 03:46:21 437.305
ITUPSAT 1 30 Jul 03:45:43 03:49:57 31° 265° (W) 03:54:13 437.325
BEESAT 3 30 Jul 03:48:48 03:51:51 21° 243° (WSW) 03:54:53 437.485
DANDE 30 Jul 04:00:01 04:03:15 19° 94° (E) 04:05:58 436.750
BEESAT 2 30 Jul 04:01:09 04:04:35 27° 240° (WSW) 04:07:59 435.950
KKS-1 30 Jul 04:10:45 04:15:13 84° 73° (ENE) 04:19:43 437.445
PCSat 30 Jul 04:17:28 04:22:52 68° 237° (WSW) 04:28:15 145.827
STARS 30 Jul 04:40:30 04:44:55 86° 73° (ENE) 04:49:23 437.465
SWISSCUBE 30 Jul 04:41:13 04:42:07 10° 277° (W) 04:43:01 437.505
CUSAT 1 30 Jul 04:48:42 04:51:59 48° 286° (WNW) 04:54:44 437.405
JAS-2 30 Jul 04:49:55 04:51:03 11° 316° (NW) 04:52:11 435.910
AIST 2 30 Jul 04:50:48 04:55:00 75° 46° (NE) 04:59:10 435.215
Oscar 19 30 Jul 04:50:57 04:54:49 22° 305° (NW) 04:58:41 437.125/150
ITAMSAT 1 30 Jul 04:52:17 04:57:32 85° 289° (WNW) 05:02:43 435.822/435.867
Gurwin Techsat 1B 30 Jul 04:57:25 05:02:13 35° 299° (WNW) 05:06:59 435.225
CUBESAT XI-V 30 Jul 05:00:23 05:04:42 41° 67° (ENE) 05:09:02 437.345
GONETS M04 30 Jul 05:01:11 05:07:52 25° 284° (WNW) 05:14:36
MOZHAYETS 4 30 Jul 05:09:40 05:13:47 31° 265° (W) 05:17:55
HORYU 2 30 Jul 05:20:44 05:23:29 16° 88° (E) 05:26:13 437.375
O/OREOS (USA 219) 30 Jul 05:20:53 05:25:12 41° 52° (NE) 05:29:31 437.305
Cosmos 2499 30 Jul 05:23:10 05:28:34 21° 286° (WNW) 05:33:44 435.465 / 435.565
AO-7 30 Jul 05:31:18 05:39:43 73° 107° (ESE) 05:48:02 29.400- 29.500
DANDE 30 Jul 05:41:31 05:45:56 45° 286° (WNW) 05:49:19 436.750
KKS-1 30 Jul 05:49:53 05:52:24 15° 273° (W) 05:54:56 437.445
RS-15 30 Jul 05:58:38 06:07:46 29° 101° (ESE) 06:17:13 29.354- 29.394
PCSat 30 Jul 06:02:41 06:05:18 14° 257° (WSW) 06:07:55 145.827
STRAND 1 30 Jul 06:12:51 06:16:51 23° 56° (NE) 06:20:50 437.568
GOMX 1 30 Jul 06:17:45 06:19:22 11° 83° (E) 06:20:59 467.674
STARS 30 Jul 06:19:34 06:21:55 14° 273° (W) 06:24:18 437.465
NOAA 18 30 Jul 06:20:55 06:23:30 13° 84° (E) 06:26:05 137.9125
AIST 2 30 Jul 06:30:03 06:33:03 19° 245° (WSW) 06:36:02 435.215
ITAMSAT 1 30 Jul 06:32:47 06:36:20 19° 308° (NW) 06:39:51 435.822/435.867
Cubesat XI-IV 30 Jul 06:33:20 06:36:45 17° 87° (E) 06:40:08 437.490
Cosmos 2491 30 Jul 06:35:53 06:41:50 19° 45° (NE) 06:47:46 435.465 / 435.565
CUBESAT XI-V 30 Jul 06:38:09 06:42:13 30° 266° (W) 06:46:18 437.345
LilacSat-2 30 Jul 06:49:44 06:52:26 18° 90° (E) 06:55:07 437.200
CUTE-I 30 Jul 06:55:18 06:59:40 25° 91° (E) 07:03:59 437.470
HORYU 2 30 Jul 06:56:07 07:00:37 78° 289° (WNW) 07:05:05 437.375
O/OREOS (USA 219) 30 Jul 07:00:29 07:04:32 33° 252° (WSW) 07:08:37 437.305
NOAA 15 30 Jul 07:04:06 07:08:56 35° 96° (E) 07:13:46 137.62
BRITE-PL 30 Jul 07:08:33 07:13:15 51° 100° (E) 07:18:20 437.365/2234.400
AO-7 30 Jul 07:24:32 07:32:02 39° 310° (NW) 07:39:30 29.400- 29.500
SO-50 30 Jul 07:26:34 07:29:38 17° 112° (ESE) 07:32:40 436.795
DOVE 4 30 Jul 07:29:40 07:33:50 24° 90° (E) 07:38:03 437.250
STRAND 1 30 Jul 07:50:25 07:55:34 73° 256° (WSW) 08:00:44 437.568
GOMX 1 30 Jul 07:53:19 07:58:21 64° 101° (ESE) 08:03:39 467.674
NOAA 18 30 Jul 07:59:38 08:05:13 70° 105° (ESE) 08:10:44 137.9125
PRISM 30 Jul 08:01:21 08:04:44 26° 62° (ENE) 08:08:08 437.425
RS-15 30 Jul 08:06:46 08:18:23 80° 128° (SE) 08:30:39 29.354- 29.394
Cubesat XI-IV 30 Jul 08:12:12 08:17:37 89° 119° (ESE) 08:22:58 437.490
YUBILEINY 30 Jul 08:14:53 08:20:03 17° 69° (ENE) 08:25:12 435.215
LilacSat-2 30 Jul 08:23:16 08:27:04 53° 289° (WNW) 08:30:50 437.200
SEEDS 30 Jul 08:24:06 08:25:37 12° 85° (E) 08:27:07 437.485
Cosmos 2491 30 Jul 08:32:14 08:40:55 61° 72° (ENE) 08:49:35 435.465 / 435.565
HORYU 2 30 Jul 08:34:03 08:36:29 15° 308° (NW) 08:38:54 437.375
CUTE-I 30 Jul 08:34:52 08:40:10 63° 291° (WNW) 08:45:25 437.470
UNISAT 6 30 Jul 08:37:45 08:38:33 10° 48° (NE) 08:39:22 437.425
NOAA 15 30 Jul 08:43:52 08:48:51 44° 296° (WNW) 08:53:50 137.62
BRITE-PL 30 Jul 08:47:29 08:51:35 29° 297° (WNW) 08:55:57 437.365/2234.400
CINEMA 3 30 Jul 08:53:18 08:58:03 40° 96° (E) 09:02:45 145.822/145.860
AAUSAT CUBESAT 2 30 Jul 08:53:47 08:55:50 13° 87° (E) 08:57:51 437.432
SO-50 30 Jul 09:04:34 09:09:27 81° 132° (SE) 09:14:18 436.795
DOVE 4 30 Jul 09:06:49 09:11:55 65° 289° (WNW) 09:17:09 437.250
UWE-3 30 Jul 09:08:56 09:11:23 14° 85° (E) 09:13:47 435.000/436.395/437.385
HO-68 30 Jul 09:09:40 09:16:36 47° 99° (E) 09:23:27 435.675
CANX-2 30 Jul 09:12:23 09:16:31 48° 99° (E) 09:20:35 2200.000
ANTELSAT 30 Jul 09:13:09 09:16:24 19° 56° (NE) 09:19:40 437.575/2403.000
AO-7 30 Jul 09:17:58 09:22:37 16° 336° (NNW) 09:27:16 29.400- 29.500
CUTE 1.7 + AOD 2 30 Jul 09:25:06 09:29:16 57° 101° (E) 09:33:24 437.475
GOMX 1 30 Jul 09:32:01 09:36:07 26° 300° (WNW) 09:40:24 467.674
STRAND 1 30 Jul 09:33:24 09:35:41 13° 276° (W) 09:37:59 437.568
PRISM 30 Jul 09:36:02 09:39:54 42° 261° (W) 09:43:48 437.425
Oscar 11 30 Jul 09:36:05 09:38:47 16° 88° (E) 09:41:28 145.826/435.025
CUBEBUG 2 30 Jul 09:37:14 09:41:33 34° 94° (E) 09:45:45 437.445
Cosmos 2504 30 Jul 09:40:19 09:46:20 21° 73° (ENE) 09:52:14 435.465 / 435.565
NOAA 18 30 Jul 09:40:54 09:45:27 27° 305° (NW) 09:49:59 137.9125
TIGRISAT 30 Jul 09:52:29 09:56:43 34° 64° (ENE) 10:00:59 435.000
Cubesat XI-IV 30 Jul 09:53:12 09:57:03 21° 307° (NW) 10:00:53 437.490
SEEDS 30 Jul 09:57:48 10:02:00 87° 104° (ESE) 10:06:10 437.485
COMPASS 1 30 Jul 10:02:57 10:07:06 72° 102° (ESE) 10:11:13 437.405
YUBILEINY 30 Jul 10:06:24 10:15:03 65° 93° (E) 10:23:47 435.215
UNISAT 6 30 Jul 10:09:43 10:14:13 49° 68° (ENE) 10:18:47 437.425
CUTE-I 30 Jul 10:16:21 10:19:16 15° 312° (NW) 10:22:11 437.470
RS-15 30 Jul 10:20:18 10:31:56 56° 338° (NNW) 10:44:03 29.354- 29.394
DELFI C3 30 Jul 10:21:22 10:24:13 19° 91° (E) 10:27:04 145.870
NOAA 15 30 Jul 10:26:09 10:27:25 11° 317° (NW) 10:28:42 137.62
AAUSAT CUBESAT 2 30 Jul 10:27:45 10:31:54 81° 286° (WNW) 10:36:00 437.432
Cosmos 2491 30 Jul 10:29:32 10:37:28 41° 275° (W) 10:45:26 435.465 / 435.565
CINEMA 3 30 Jul 10:30:32 10:35:09 37° 296° (WNW) 10:39:44 145.822/145.860
FUNcube-1 30 Jul 10:33:30 10:37:53 49° 99° (E) 10:42:07 145.935
NANOSAT C BR1 30 Jul 10:36:00 10:38:56 18° 58° (ENE) 10:41:54 145.865
ZACube-1 30 Jul 10:36:24 10:40:52 55° 100° (E) 10:45:12 437.345
DUCHIFAT 1 30 Jul 10:38:31 10:41:27 18° 57° (ENE) 10:44:23 145.980
BUGSAT 1 30 Jul 10:40:51 10:41:30 10° 50° (NE) 10:42:10 437.445
UWE-3 30 Jul 10:43:53 10:48:34 90° 280° (W) 10:53:05 435.000/436.395/437.385
DOVE 4 30 Jul 10:46:01 10:48:45 15° 308° (NW) 10:51:33 437.250
SO-50 30 Jul 10:46:05 10:50:26 32° 334° (NNW) 10:54:44 436.795
ANTELSAT 30 Jul 10:47:51 10:52:33 82° 257° (WSW) 10:57:19 437.575/2403.000
CANX-2 30 Jul 10:48:44 10:52:08 24° 298° (WNW) 10:55:31 2200.000
HO-68 30 Jul 10:57:32 11:04:25 50° 300° (WNW) 11:11:16 435.675
QB50P1 30 Jul 10:59:37 11:03:18 29° 63° (ENE) 11:07:01 145.935-145.965
CUTE 1.7 + AOD 2 30 Jul 11:01:36 11:04:48 21° 300° (WNW) 11:07:58 437.475
POPSAT HIP 1 30 Jul 11:06:16 11:10:04 32° 64° (ENE) 11:13:56 437.405
AO-7 30 Jul 11:09:29 11:12:04 12° 3° (N) 11:14:40 29.400- 29.500
Oscar 11 30 Jul 11:11:07 11:15:26 73° 287° (WNW) 11:19:43 145.826/435.025
CUBEBUG 2 30 Jul 11:13:50 11:18:15 39° 294° (WNW) 11:22:32 437.445
HUMSAT D 30 Jul 11:19:52 11:23:47 36° 97° (E) 11:27:38 437.325/437.525
QB50P2 30 Jul 11:27:43 11:31:52 53° 69° (ENE) 11:36:04 145.880/145.840
TIGRISAT 30 Jul 11:28:59 11:33:22 39° 263° (W) 11:37:48 435.000
Cosmos 2504 30 Jul 11:29:28 11:38:19 74° 95° (E) 11:46:58 435.465 / 435.565
POLYITAN 1 30 Jul 11:30:19 11:34:30 54° 69° (ENE) 11:38:44 437.675
M-CUBED/EXP-1 PRIME 30 Jul 11:31:23 11:35:54 44° 104° (ESE) 11:40:24 437.505
SEEDS 30 Jul 11:34:45 11:37:08 15° 304° (NW) 11:39:31 437.485
JAS-2 30 Jul 11:36:19 11:41:07 30° 60° (ENE) 11:45:39 435.910
COMPASS 1 30 Jul 11:39:29 11:42:13 17° 302° (WNW) 11:44:55 437.405
UNISAT 6 30 Jul 11:47:12 11:51:10 27° 267° (W) 11:55:11 437.425
AUBIESAT-1 30 Jul 11:54:19 11:58:56 58° 107° (ESE) 12:03:30 437.475
DELFI C3 30 Jul 11:55:32 11:59:23 52° 290° (WNW) 12:03:13 145.870
YUBILEINY 30 Jul 12:04:20 12:12:28 40° 297° (WNW) 12:20:41 435.215
AAUSAT CUBESAT 2 30 Jul 12:04:48 12:06:44 13° 305° (NW) 12:08:38 437.432
AISAT 30 Jul 12:05:38 12:08:15 15° 88° (E) 12:10:51 437.250
NANOSAT C BR1 30 Jul 12:09:59 12:14:14 71° 257° (WSW) 12:18:32 145.865
FUNcube-1 30 Jul 12:10:09 12:13:54 26° 299° (WNW) 12:17:33 145.935
BUGSAT 1 30 Jul 12:11:57 12:16:00 58° 70° (ENE) 12:20:09 437.445
DUCHIFAT 1 30 Jul 12:12:27 12:16:42 71° 257° (WSW) 12:20:59 145.980
ZACube-1 30 Jul 12:13:14 12:16:51 24° 300° (WNW) 12:20:24 437.345
50 SAT 30 Jul 12:19:27 12:21:47 16° 91° (E) 12:24:06 437.505
UWE-3 30 Jul 12:21:27 12:24:23 17° 305° (NW) 12:27:15 435.000/436.395/437.385
SPROUT 30 Jul 12:26:19 12:27:51 12° 85° (E) 12:29:23 437.525
ANTELSAT 30 Jul 12:27:47 12:30:02 13° 275° (W) 12:32:18 437.575/2403.000
SO-50 30 Jul 12:28:40 12:32:14 20° 358° (N) 12:35:46 436.795
QB50P1 30 Jul 12:34:58 12:38:58 40° 262° (W) 12:43:02 145.935-145.965
RS-15 30 Jul 12:35:33 12:47:16 49° 10° (N) 12:59:13 29.354- 29.394
POPSAT HIP 1 30 Jul 12:41:55 12:45:50 35° 264° (W) 12:49:49 437.405
HO-68 30 Jul 12:46:24 12:50:35 17° 323° (NW) 12:54:47 435.675
CUBEBUG 1 30 Jul 12:47:12 12:51:19 37° 97° (E) 12:55:26 437.445
Oscar 11 30 Jul 12:48:55 12:50:50 13° 307° (NW) 12:52:44 145.826/435.025
ESTCUBE 1 30 Jul 12:54:30 12:58:58 61° 101° (ESE) 13:03:25 437.505/2401.250
Oscar 19 30 Jul 12:55:08 12:59:49 38° 63° (ENE) 13:04:33 437.125/150
VELOX 1 30 Jul 12:55:39 12:59:51 38° 98° (E) 13:04:00 145.980
HUMSAT D 30 Jul 12:55:40 12:59:21 30° 296° (WNW) 13:02:58 437.325/437.525
AO-7 30 Jul 12:56:16 13:01:42 20° 31° (NNE) 13:07:07 29.400- 29.500
AIST 1 30 Jul 12:57:29 13:00:47 22° 87° (E) 13:04:06
AO-85 30 Jul 13:01:24 13:04:48 17° 112° (ESE) 13:08:07 145.980
ITAMSAT 1 30 Jul 13:02:09 13:03:55 12° 44° (NE) 13:05:41 435.822/435.867
QB50P2 30 Jul 13:04:41 13:07:59 22° 269° (W) 13:11:20 145.880/145.840
Gurwin Techsat 1B 30 Jul 13:05:54 13:10:15 26° 57° (ENE) 13:14:36 435.225
M-CUBED/EXP-1 PRIME 30 Jul 13:06:05 13:10:19 34° 303° (WNW) 13:14:33 437.505
POLYITAN 1 30 Jul 13:07:20 13:10:38 21° 269° (W) 13:13:57 437.675
JAS-2 30 Jul 13:20:31 13:26:05 53° 259° (W) 13:31:16 435.910
Cosmos 2504 30 Jul 13:24:28 13:32:29 36° 299° (WNW) 13:40:19 435.465 / 435.565
DX 1 30 Jul 13:27:28 13:31:48 55° 101° (ESE) 13:36:07 434.975-435.025
AUBIESAT-1 30 Jul 13:29:13 13:33:05 27° 306° (NW) 13:36:59 437.475
CUSAT 1 30 Jul 13:32:46 13:34:14 13° 66° (ENE) 13:35:47 437.405
UKube-1 30 Jul 13:34:08 13:38:23 52° 101° (E) 13:42:37 .
AISAT 30 Jul 13:40:50 13:45:19 82° 287° (WNW) 13:49:47 437.250
BUGSAT 1 30 Jul 13:48:49 13:51:46 19° 270° (W) 13:54:46 437.445
50 SAT 30 Jul 13:52:12 13:55:44 51° 289° (WNW) 13:59:13 437.505
SPROUT 30 Jul 14:00:10 14:04:32 82° 104° (ESE) 14:08:52 437.525
YUBILEINY 30 Jul 14:08:41 14:12:35 13° 327° (NNW) 14:16:30 435.215
SO-50 30 Jul 14:10:03 14:14:08 27° 22° (NNE) 14:18:08 436.795
GONETS M04 30 Jul 14:18:05 14:24:28 24° 75° (ENE) 14:30:52
Cosmos 2499 30 Jul 14:22:02 14:27:34 19° 73° (ENE) 14:32:58 435.465 / 435.565
CUBEBUG 1 30 Jul 14:23:38 14:27:34 32° 296° (WNW) 14:31:30 437.445
DANDE 30 Jul 14:30:39 14:32:06 14° 66° (ENE) 14:33:36 436.750
ESTCUBE 1 30 Jul 14:31:59 14:35:27 22° 301° (WNW) 14:38:54 437.505/2401.250
VELOX 1 30 Jul 14:32:17 14:36:15 32° 297° (WNW) 14:40:13 145.980
AIST 1 30 Jul 14:33:59 14:38:06 47° 287° (WNW) 14:42:16
Oscar 19 30 Jul 14:34:21 14:39:09 40° 263° (W) 14:44:00 437.125/150
ITAMSAT 1 30 Jul 14:37:15 14:42:15 48° 66° (ENE) 14:47:17 435.822/435.867
AO-85 30 Jul 14:39:23 14:44:41 78° 131° (SE) 14:49:41 145.980
TISAT 1 30 Jul 14:41:55 14:46:09 58° 101° (ESE) 14:50:20 437.305
Gurwin Techsat 1B 30 Jul 14:44:32 14:49:49 66° 257° (WSW) 14:55:10 435.225
AO-7 30 Jul 14:44:44 14:52:39 49° 55° (NE) 15:00:36 29.400- 29.500
RS-15 30 Jul 14:49:24 15:01:46 78° 41° (NE) 15:14:09 29.354- 29.394
SWISSCUBE 30 Jul 14:53:11 14:56:47 21° 91° (E) 15:00:21 437.505
DX 1 30 Jul 15:04:15 15:07:43 23° 301° (WNW) 15:11:10 434.975-435.025
UKube-1 30 Jul 15:10:42 15:14:11 24° 300° (WNW) 15:17:39 .
CUSAT 1 30 Jul 15:13:28 15:16:20 45° 260° (W) 15:19:50 437.405
BEESAT 30 Jul 15:13:48 15:17:55 28° 94° (E) 15:22:01 436.000
AISAT 30 Jul 15:18:38 15:21:08 15° 307° (NW) 15:23:38 437.250
Cosmos 2504 30 Jul 15:25:59 15:29:08 12° 327° (NNW) 15:32:15 435.465 / 435.565
SPROUT 30 Jul 15:37:11 15:39:57 17° 304° (NW) 15:42:42 437.525
ITUPSAT 1 30 Jul 15:39:14 15:43:49 44° 99° (E) 15:48:22 437.325
SO-50 30 Jul 15:50:32 15:55:17 81° 44° (NE) 15:59:51 436.795
KKS-1 30 Jul 15:58:00 15:59:07 11° 84° (E) 16:00:14 437.445
Cosmos 2499 30 Jul 16:10:30 16:19:16 69° 94° (E) 16:27:38 435.465 / 435.565
GONETS M04 30 Jul 16:11:20 16:20:02 85° 98° (E) 16:28:50
DANDE 30 Jul 16:12:42 16:14:56 24° 263° (W) 16:17:19 436.750
NOAA 18 30 Jul 16:16:01 16:17:56 12° 42° (NE) 16:19:51 137.9125
ITAMSAT 1 30 Jul 16:17:17 16:21:56 32° 265° (W) 16:26:37 435.822/435.867
TISAT 1 30 Jul 16:18:13 16:21:28 22° 301° (WNW) 16:24:43 437.305
AO-85 30 Jul 16:20:55 16:25:37 33° 331° (NNW) 16:30:02 145.980
HORYU 2 30 Jul 16:23:55 16:27:53 31° 63° (ENE) 16:31:53 437.375
Cubesat XI-IV 30 Jul 16:24:58 16:26:57 12° 44° (NE) 16:28:56 437.490
STARS 30 Jul 16:26:21 16:27:18 11° 84° (E) 16:28:15 437.465
Gurwin Techsat 1B 30 Jul 16:28:56 16:30:50 12° 277° (W) 16:32:45 435.225
SWISSCUBE 30 Jul 16:30:18 16:35:02 64° 290° (WNW) 16:39:44 437.505
AO-7 30 Jul 16:37:13 16:45:24 55° 257° (WSW) 16:53:39 29.400- 29.500
CUTE-I 30 Jul 16:45:48 16:49:02 16° 49° (NE) 16:52:15 437.470
BRITE-PL 30 Jul 16:49:42 16:52:18 16° 55° (NE) 16:54:57 437.365/2234.400
BEESAT 30 Jul 16:51:20 16:55:56 48° 293° (WNW) 17:00:29 436.000
NOAA 15 30 Jul 16:52:26 16:56:16 21° 54° (NE) 17:00:08 137.62
MOZHAYETS 4 30 Jul 16:57:50 17:02:11 40° 97° (E) 17:06:29
RS-15 30 Jul 17:02:20 17:13:41 46° 248° (WSW) 17:24:57 29.354- 29.394
ITUPSAT 1 30 Jul 17:17:20 17:21:32 31° 299° (WNW) 17:25:43 437.325
GOMX 1 30 Jul 17:31:27 17:34:35 20° 57° (ENE) 17:37:53 467.674
SO-50 30 Jul 17:31:50 17:35:13 20° 246° (WSW) 17:38:32 436.795
KKS-1 30 Jul 17:32:00 17:36:31 73° 103° (ESE) 17:41:00 437.445
LilacSat-2 30 Jul 17:37:23 17:40:27 22° 62° (ENE) 17:43:32 437.200
BEESAT 3 30 Jul 17:45:44 17:47:44 14° 113° (ESE) 17:49:46 437.485
NOAA 18 30 Jul 17:52:05 17:57:20 45° 63° (ENE) 18:02:35 137.9125
HO-68 30 Jul 17:59:52 18:04:49 21° 42° (NE) 18:09:47 435.675
STARS 30 Jul 18:00:01 18:04:30 72° 104° (ESE) 18:08:56 437.465
HORYU 2 30 Jul 18:00:07 18:04:22 40° 262° (W) 18:08:38 437.375
Cubesat XI-IV 30 Jul 18:00:43 18:05:52 48° 65° (ENE) 18:11:02 437.490
BEESAT 2 30 Jul 18:00:49 18:01:52 11° 110° (ESE) 18:02:54 435.950
AO-85 30 Jul 18:03:43 18:07:24 20° 355° (N) 18:10:52 145.980
Cosmos 2499 30 Jul 18:04:59 18:13:01 38° 297° (WNW) 18:20:44 435.465 / 435.565
SWISSCUBE 30 Jul 18:09:44 18:11:58 13° 310° (NW) 18:14:12 437.505
GONETS M04 30 Jul 18:10:36 18:18:02 30° 304° (WNW) 18:25:33
YUBILEINY 30 Jul 18:12:48 18:17:37 15° 38° (NE) 18:22:24 435.215
CUTE-I 30 Jul 18:22:52 18:28:13 70° 70° (ENE) 18:33:35 437.470
BRITE-PL 30 Jul 18:26:06 18:30:15 78° 257° (WSW) 18:34:35 437.365/2234.400
CINEMA 3 30 Jul 18:26:26 18:28:50 14° 50° (NE) 18:31:16 145.822/145.860
CUBESAT XI-V 30 Jul 18:27:40 18:32:06 43° 98° (E) 18:36:31 437.345
NOAA 15 30 Jul 18:30:14 18:35:29 84° 254° (WSW) 18:40:47 137.62
BEESAT 30 Jul 18:31:55 18:32:39 10° 314° (NW) 18:33:23 436.000
MOZHAYETS 4 30 Jul 18:35:14 18:39:16 31° 297° (WNW) 18:43:18
AO-7 30 Jul 18:36:28 18:40:14 13° 281° (W) 18:44:00 29.400- 29.500
CANX-2 30 Jul 18:37:50 18:39:43 13° 54° (NE) 18:41:37 2200.000
DOVE 4 30 Jul 18:41:07 18:45:16 39° 65° (ENE) 18:49:41 437.250
CUTE 1.7 + AOD 2 30 Jul 18:49:58 18:52:16 14° 55° (NE) 18:54:34 437.475
PCSat 30 Jul 19:05:20 19:10:04 32° 114° (ESE) 19:14:49 145.827
CUBEBUG 2 30 Jul 19:07:53 19:09:31 12° 49° (NE) 19:11:10 437.445
GOMX 1 30 Jul 19:07:58 19:12:13 67° 258° (WSW) 19:16:46 467.674
KKS-1 30 Jul 19:09:25 19:12:38 20° 303° (WNW) 19:15:51 437.445
LilacSat-2 30 Jul 19:10:48 19:14:32 45° 261° (W) 19:18:19 437.200
RS-15 30 Jul 19:19:33 19:22:35 11° 273° (W) 19:25:36 29.354- 29.394
BEESAT 3 30 Jul 19:20:52 19:24:48 86° 132° (SE) 19:28:47 437.485
SEEDS 30 Jul 19:20:56 19:23:56 19° 59° (ENE) 19:26:57 437.485
Cosmos 2504 30 Jul 19:23:15 19:26:49 13° 35° (NE) 19:30:18 435.465 / 435.565
COMPASS 1 30 Jul 19:25:44 19:28:19 16° 57° (ENE) 19:30:54 437.405
NOAA 18 30 Jul 19:32:57 19:38:05 38° 263° (W) 19:43:16 137.9125
BEESAT 2 30 Jul 19:35:00 19:38:57 70° 129° (SE) 19:42:56 435.950
STARS 30 Jul 19:37:14 19:40:24 19° 303° (WNW) 19:43:34 437.465
Cubesat XI-IV 30 Jul 19:41:18 19:46:08 33° 265° (W) 19:51:00 437.490
O/OREOS (USA 219) 30 Jul 19:41:49 19:43:53 13° 98° (E) 19:45:58 437.305
HO-68 30 Jul 19:44:15 19:51:20 64° 64° (ENE) 19:58:26 435.675
AO-85 30 Jul 19:45:21 19:49:20 25° 20° (NNE) 19:53:03 145.980
AAUSAT CUBESAT 2 30 Jul 19:49:23 19:52:29 21° 60° (ENE) 19:55:36 437.432
Cosmos 2491 30 Jul 19:50:48 19:54:33 14° 66° (ENE) 19:58:19 435.465 / 435.565
STRAND 1 30 Jul 19:55:10 19:59:21 25° 92° (E) 20:03:31 437.568
CINEMA 3 30 Jul 20:00:26 20:05:04 67° 71° (ENE) 20:09:56 145.822/145.860
FUNcube-1 30 Jul 20:00:44 20:03:16 15° 54° (NE) 20:05:48 145.935
ZACube-1 30 Jul 20:03:35 20:06:25 16° 55° (NE) 20:09:14 437.345
CUTE-I 30 Jul 20:04:35 20:08:48 23° 270° (W) 20:13:00 437.470
CUBESAT XI-V 30 Jul 20:05:21 20:09:22 30° 297° (WNW) 20:13:22 437.345
Cosmos 2499 30 Jul 20:05:57 20:09:10 12° 325° (NW) 20:12:21 435.465 / 435.565
YUBILEINY 30 Jul 20:08:52 20:17:21 46° 66° (ENE) 20:25:44 435.215
BRITE-PL 30 Jul 20:09:21 20:09:39 10° 277° (W) 20:09:58 437.365/2234.400
CANX-2 30 Jul 20:10:37 20:14:52 75° 73° (ENE) 20:19:08 2200.000
UWE-3 30 Jul 20:10:57 20:14:44 25° 60° (ENE) 20:18:33 435.000/436.395/437.385
NOAA 15 30 Jul 20:13:04 20:16:06 15° 274° (W) 20:19:08 137.62
GONETS M04 30 Jul 20:17:29 20:18:50 10° 335° (NNW) 20:20:10
DOVE 4 30 Jul 20:19:04 20:23:04 32° 266° (W) 20:27:19 437.250
CUTE 1.7 + AOD 2 30 Jul 20:23:13 20:27:29 86° 79° (ENE) 20:31:47 437.475
AIST 2 30 Jul 20:32:49 20:35:50 20° 116° (ESE) 20:38:53 435.215
Oscar 11 30 Jul 20:36:12 20:39:51 27° 62° (ENE) 20:43:31 145.826/435.025
CUBEBUG 2 30 Jul 20:40:35 20:45:10 56° 69° (ENE) 20:49:51 437.445
HUMSAT D 30 Jul 20:45:11 20:45:53 10° 51° (NE) 20:46:35 437.325/437.525
ISS 30 Jul 20:45:17 20:46:54 13° 141° (SE) 20:48:31 145.825
PCSat 30 Jul 20:47:49 20:53:12 61° 315° (NW) 20:58:37 145.827
M-CUBED/EXP-1 PRIME 30 Jul 20:50:06 20:53:20 23° 51° (NE) 20:56:45 437.505
SEEDS 30 Jul 20:55:04 20:59:15 64° 258° (WSW) 21:03:28 437.485
COMPASS 1 30 Jul 20:59:12 21:03:22 79° 256° (WSW) 21:07:34 437.405
BEESAT 3 30 Jul 20:59:40 21:02:57 24° 334° (NNW) 21:06:17 437.485
PRISM 30 Jul 21:11:58 21:14:43 17° 90° (E) 21:17:29 437.425
AUBIESAT-1 30 Jul 21:12:12 21:15:46 28° 55° (NE) 21:19:32 437.475
DELFI C3 30 Jul 21:12:50 21:16:09 26° 63° (ENE) 21:19:28 145.870
BEESAT 2 30 Jul 21:13:40 21:17:09 28° 331° (NNW) 21:20:38 435.950
Cosmos 2504 30 Jul 21:15:28 21:23:12 41° 64° (ENE) 21:30:22 435.465 / 435.565
O/OREOS (USA 219) 30 Jul 21:18:05 21:22:33 85° 116° (ESE) 21:27:05 437.305
AAUSAT CUBESAT 2 30 Jul 21:23:34 21:27:39 56° 259° (W) 21:31:45 437.432
AO-85 30 Jul 21:25:55 21:30:34 73° 43° (NE) 21:34:47 145.980
HO-68 30 Jul 21:33:01 21:39:29 35° 266° (W) 21:46:01 435.675
STRAND 1 30 Jul 21:33:53 21:38:56 60° 292° (WNW) 21:43:56 437.568
FUNcube-1 30 Jul 21:34:13 21:38:48 78° 73° (ENE) 21:43:25 145.935
ZACube-1 30 Jul 21:37:27 21:42:03 87° 73° (ENE) 21:46:41 437.345
CINEMA 3 30 Jul 21:39:13 21:42:43 20° 272° (W) 21:46:19 145.822/145.860
Cosmos 2491 30 Jul 21:40:56 21:49:18 55° 90° (E) 21:57:42 435.465 / 435.565
UWE-3 30 Jul 21:46:18 21:50:53 57° 260° (W) 21:55:32 435.000/436.395/437.385
CANX-2 30 Jul 21:48:42 21:51:15 15° 272° (W) 21:53:49 2200.000
CUTE 1.7 + AOD 2 30 Jul 22:01:53 22:03:57 13° 274° (W) 22:06:03 437.475
YUBILEINY 30 Jul 22:05:53 22:14:25 55° 270° (W) 22:22:53 435.215
AIST 2 30 Jul 22:09:47 22:13:54 72° 315° (NW) 22:18:05 435.215
Oscar 11 30 Jul 22:11:39 22:15:49 45° 262° (W) 22:20:01 145.826/435.025
CUBEBUG 1 30 Jul 22:15:58 22:17:32 12° 51° (NE) 22:19:06 437.445
HUMSAT D 30 Jul 22:16:25 22:20:38 56° 71° (ENE) 22:24:52 437.325/437.525
CUBEBUG 2 30 Jul 22:18:19 22:22:07 24° 269° (W) 22:25:59 437.445
ISS 30 Jul 22:19:37 22:22:44 42° 160° (SSE) 22:25:51 145.825
M-CUBED/EXP-1 PRIME 30 Jul 22:23:29 22:27:27 61° 252° (WSW) 22:31:48 437.505
ESTCUBE 1 30 Jul 22:24:43 22:27:52 19° 57° (ENE) 22:31:03 437.505/2401.250
VELOX 1 30 Jul 22:25:09 22:27:10 13° 52° (NE) 22:29:13 145.980
PCSat 30 Jul 22:33:17 22:37:39 24° 339° (NNW) 22:42:02 145.827
ANTELSAT 30 Jul 22:34:49 22:37:31 15° 86° (E) 22:40:10 437.575/2403.000
COMPASS 1 30 Jul 22:38:46 22:39:40 11° 276° (W) 22:40:34 437.405
BEESAT 3 30 Jul 22:39:34 22:41:54 15° 357° (N) 22:44:14 437.485
AUBIESAT-1 30 Jul 22:46:10 22:50:03 45° 256° (WSW) 22:54:15 437.475
PRISM 30 Jul 22:46:23 22:50:27 62° 290° (WNW) 22:54:30 437.425
DELFI C3 30 Jul 22:47:09 22:50:53 38° 262° (W) 22:54:38 145.870
BEESAT 2 30 Jul 22:53:44 22:56:10 15° 355° (N) 22:58:37 435.950
